Weather Roundup
Issued by NWS Chicago, IL

Home | Current Version | Previous Version | Text Only | Print | Product List | Glossary On
Versions: 1 2 3 4 5 6 7 8 9 10 11 12 13 14 15 16 17 18 19 20 21 22 23 24 25 26 27 28 29 30 31 32 33 34 35 36 37 38 39 40 41 42 43 44 45 46 47 48 49 50
000
NZUS59 KLOT 311110
HRRLOT

CHICAGO AREA WEATHER ROUNDUP
NATIONAL WEATHER SERVICE CHICAGO/ROMEOVILLE IL
500 AM CST SAT JAN 31 2015

NOTE: "FAIR" INDICATES FEW OR NO CLOUDS BELOW 12,000 FEET WITH NO
SIGNIFICANT WEATHER AND/OR OBSTRUCTIONS TO VISIBILITY.

* THESE STATIONS ARE NOT UNDER NWS QUALITY CONTROL. THEY ALSO MAY NOT
  REPORT WEATHER SUCH AS PRECIPITATION OR FOG.

ILZ005-006-012>014-019>023-311200-
NORTHEAST ILLINOIS

CITY           SKY/WX    TMP DP  RH WIND       PRES   REMARKS
OHARE          MOCLDY    25  18  74 SW8       30.24F WCI  16
MIDWAY         CLOUDY    28  21  75 SW8       30.26F WCI  20
AURORA         CLEAR     22  17  81 S7        30.25F WCI  13
LANSING*       PTCLDY    25  21  84 SW8       30.28F WCI  17
JOLIET*        CLEAR     23  20  88 S5        30.27F WCI  17
WAUKEGAN       CLEAR     20  15  81 SW7       30.22F WCI  11
DUPAGE AIRPORT CLEAR     22  17  81 SW8       30.24F WCI  12
WHEELING       PTCLDY    25  17  72 S6        30.26F WCI  18
KANKAKEE*      MOCLDY    24  21  90 SW7       30.30F WCI  16
MORRIS*        CLEAR     23  20  91 S5        30.26F WCI  16
LEWIS AIRPORT* CLEAR     22  19  89 SW7       30.26F WCI  14
NORTHERLY IS     N/A     28  20  71 SW2         N/A
$$

WIZ051-052-058>065-066-070>072-311200-
SOUTHEAST WISCONSIN

CITY           SKY/WX    TMP DP  RH WIND       PRES   REMARKS
MILWAUKEE      PTCLDY    21  14  74 SW8       30.20F WCI  11
KENOSHA*       CLEAR     20  15  81 SW6       30.21F WCI  12
RACINE*        PTCLDY    20  14  77 SW8       30.23F WCI  10
BURLINGTON     MOCLDY    17  15  90 S5        30.20F WCI  10
WEST BEND      MOCLDY    21  16  79 SW3       30.17F
$$

INZ001>003-010>013-019-020-311200-
NORTHWEST INDIANA

CITY           SKY/WX    TMP DP  RH WIND       PRES   REMARKS
GARY*          CLOUDY    28  19  69 VRB7      30.28F WCI  21
MICHIGAN CITY* NOT AVBL
RENSSELAER*    NOT AVBL
VALPARAISO     CLOUDY    23  18  81 S6        30.28F WCI  16
$$

LMZ740>746-311200-
SOUTHERN LAKE MICHIGAN

STATION/POSITION TIME  SKY/WX   TEMP WIND        PRES    VSBY
                                AIR  DIR/SP/G
                 (UTC)          (F)  (DEG/KT/KT) (MB)    (MI)
HARRISON CRIB    1100            28  200/ 14/ 17   N/A
BURNHAM HARBOR   1100            28  240/  5/  8   N/A
CALUMET HARBOR   1100            27  210/  8/ 11   N/A
BURNS HARBOR     NOT AVBL
MICHIGAN CITY    1100            24  160/  8/ 11   N/A
$$

ABBREVIATIONS USED IN REMARKS
   TC - TEMPERATURE IN CELSIUS
  WCI - WIND CHILL INDEX
   HX - HEAT INDEX
  VSB - VISIBILITY
$$



USA.gov is the U.S. government's official web portal to all federal, state and local government web resources and services.